| time (UTC) | temp F | wind direction | speed knots | gust knots | rain 1hr in | rain 24hr in | rain mn in | humidity % | barometer mb |
| 20260504003027 | 67 | 268 | 0.0 | 3.5 | 0.00 | 0.00 | 0.00 | 43 | 1002.9 |
| 20260504001533 | 67 | 271 | 0.0 | 7.0 | 0.00 | 0.00 | 0.00 | 42 | 1002.9 |
| 20260504000025 | 68 | 260 | 0.0 | 6.1 | 0.00 | 0.00 | 0.00 | 41 | 1002.9 |
| 20260503234527 | 68 | 279 | 0.9 | 4.3 | 0.00 | 0.00 | 0.00 | 40 | 1002.8 |
| 20260503233024 | 68 | 275 | 1.7 | 7.8 | 0.00 | 0.00 | 0.00 | 40 | 1002.9 |
| 20260503231523 | 68 | 260 | 0.9 | 7.0 | 0.00 | 0.00 | 0.00 | 40 | 1002.9 |
| 20260503230022 | 69 | 271 | 0.0 | 5.2 | 0.00 | 0.00 | 0.00 | 39 | 1003.1 |
| 20260503224521 | 69 | 250 | 1.7 | 6.1 | 0.00 | 0.00 | 0.00 | 39 | 1003.1 |
| 20260503223021 | 69 | 300 | 1.7 | 11.3 | 0.00 | 0.00 | 0.00 | 38 | 1003.3 |
| 20260503221518 | 69 | 271 | 2.6 | 7.8 | 0.00 | 0.00 | 0.00 | 39 | 1003.5 |
| 20260503220028 | 68 | 242 | 1.7 | 7.8 | 0.00 | 0.00 | 0.00 | 39 | 1003.6 |
| 20260503214529 | 68 | 261 | 1.7 | 8.7 | 0.00 | 0.00 | 0.00 | 39 | 1003.7 |
| 20260503213028 | 69 | 240 | 4.3 | 8.7 | 0.00 | 0.00 | 0.00 | 38 | 1003.9 |
| 20260503211517 | 68 | 254 | 0.9 | 8.7 | 0.00 | 0.00 | 0.00 | 39 | 1003.9 |
| 20260503210015 | 68 | 262 | 4.3 | 8.7 | 0.00 | 0.00 | 0.00 | 41 | 1004.6 |
| 20260503204514 | 66 | 280 | 0.9 | 6.1 | 0.00 | 0.00 | 0.00 | 45 | 1004.8 |
| 20260503203009 | 65 | 278 | 1.7 | 13.9 | 0.00 | 0.00 | 0.00 | 46 | 1005.3 |
| 20260503201506 | 64 | 280 | 3.5 | 10.4 | 0.00 | 0.00 | 0.00 | 44 | 1005.2 |
| 20260503200005 | 66 | 267 | 6.1 | 12.2 | 0.00 | 0.00 | 0.00 | 41 | 1005.3 |
| 20260503194505 | 66 | 319 | 3.5 | 8.7 | 0.00 | 0.00 | 0.00 | 39 | 1005.3 |
| 20260503193006 | 66 | 70 | 1.7 | 7.0 | 0.00 | 0.00 | 0.00 | 39 | 1005.7 |
| 20260503191502 | 66 | 249 | 2.6 | 7.8 | 0.00 | 0.00 | 0.00 | 39 | 1005.8 |
| 20260503184557 | 65 | 277 | 1.7 | 9.6 | 0.00 | 0.00 | 0.00 | 41 | 1005.8 |
| 20260503183058 | 64 | 211 | 0.9 | 12.2 | 0.00 | 0.00 | 0.00 | 46 | 1006.1 |
| 20260503181559 | 62 | 265 | 1.7 | 12.2 | 0.00 | 0.00 | 0.00 | 47 | 1006.4 |
| 20260503180052 | 62 | 232 | 2.6 | 8.7 | 0.00 | 0.00 | 0.00 | 50 | 1006.8 |
| 20260503174553 | 61 | 300 | 1.7 | 7.8 | 0.00 | 0.00 | 0.00 | 50 | 1007.1 |
| 20260503173042 | 59 | 259 | 2.6 | 8.7 | 0.00 | 0.00 | 0.00 | 52 | 1007.5 |
| 20260503171541 | 57 | 211 | 1.7 | 8.7 | 0.00 | 0.00 | 0.00 | 56 | 1007.8 |